Regional Weather Roundup
Issued by NWS

Home | Current Version | Previous Version | Graphics & Text | Print | Product List | Glossary On
Versions: 1 2 3 4 5 6 7 8 9 10 11 12 13 14 15 16 17 18 19 20 21 22 23 24 25 26 27 28 29 30 31 32 33 34 35 36 37 38 39 40 41 42 43 44 45 46 47 48 49 50
000
ASUS44 KMEG 160010
RWRTN
TENNESSEE HOURLY STATE WEATHER ROUNDUP
NATIONAL WEATHER SERVICE MEMPHIS TN
700 PM CDT MON SEP 15 2014

TNZ002-004-019-021-049-052-054-088>092-160100-
WEST TENNESSEE

CITY           SKY/WX    TMP DP  RH WIND       PRES   REMARKS
MEMPHIS INTL   CLOUDY    77  63  61 SW3       30.09S
NWS MEMPHIS      N/A     75 N/A N/A MISG        N/A
JACKSON        CLOUDY    71  65  81 CALM      30.10S
DYERSBURG      CLOUDY    70  57  64 CALM      30.10S
UNION CITY     CLEAR     70  64  83 CALM      30.09S
PARIS          CLEAR     66  63  88 CALM      30.11R
HUNTINGDON     CLOUDY    67  63  87 CALM      30.10S
LEXINGTON      CLEAR     72  66  83 CALM      30.09S
SAVANNAH       CLEAR     73  70  88 CALM      30.11R
$$

TNZ008-025-027-028-033-062-065-066-160100-
NORTH MIDDLE TENNESSEE

CITY           SKY/WX    TMP DP  RH WIND       PRES   REMARKS
NASHVILLE      CLOUDY    69  63  81 SE5       30.10F
PORTLAND       MOCLDY    66  64  94 S3        30.10S
CLARKSVILLE    CLOUDY    68  62  81 S5        30.09F
SMYRNA         CLOUDY    70  65  84 CALM      30.12S
MURFREESBORO   CLOUDY    72  65  78 CALM      30.11S
COOKEVILLE     CLEAR     66  66 100 CALM      30.13S
GALLATIN       CLOUDY    70  66  86 CALM      30.12
CROSSVILLE     CLOUDY    68  63  84 CALM      30.17R
$$

TNZ061-075-076-078-094-096-097-160100-
SOUTH MIDDLE TENNESSEE

CITY           SKY/WX    TMP DP  RH WIND       PRES   REMARKS
LEWISBURG      CLOUDY    75  67  76 CALM      30.12R
FAYETTEVILLE   CLEAR     73  68  83 NE5       30.12R
TULLAHOMA      PTCLDY    73  66  78 CALM      30.14R
WINCHESTER     PTCLDY    75  70  83 CALM      30.12S
MCMINNVILLE    PTCLDY    72  72 100 CALM      30.14R
COLUMBIA       CLEAR     73  66  78 CALM      30.10F
SHELBYVILLE    MOCLDY    73  66  78 CALM      30.14R
$$

TNZ017-018-042-046-047-160100-
NORTHEAST TENNESSEE

CITY           SKY/WX    TMP DP  RH WIND       PRES   REMARKS
TRI CITIES     LGT RAIN  70  63  78 CALM      30.14F
ELIZABETHTON   CLEAR     66  63  88 CALM      30.15F
$$

TNZ012-013-036-069-073-074-160100-
CENTRAL EAST TENNESSEE

CITY           SKY/WX    TMP DP  RH WIND       PRES   REMARKS
KNOXVILLE      CLOUDY    74  67  78 CALM      30.12S
OAK RIDGE      CLOUDY    71  68  90 CALM      30.14S
GATLINBURG     PTCLDY    72  66  83 S3        30.13S
MORRISTOWN     PTCLDY    72  68  88 W3        30.14F
$$

TNZ083-085-099-160100-
SOUTHEAST TENNESSEE

CITY           SKY/WX    TMP DP  RH WIND       PRES   REMARKS
CHATTANOOGA    CLOUDY    76  67  73 NE5       30.13R
$$

SKY/WX REPORTED AS FAIR MEANS FEW OR NO CLOUDS BELOW
12 THOUSAND FEET.




USA.gov is the U.S. government's official web portal to all federal, state and local government web resources and services.